MJONE EGCC-EHAM

Flight info

Callsign MJONE
Flight time 0h 48m
Altitude 33000
Route DESIG L603 LAMSO
Aircraft PC24/M-SBDGIRWY/LB2

Departure

Time 2026-05-05 19:56
Airport Manchester Airport (EGCC)

Arrival

Time 2026-05-05 20:45
Airport Amsterdam Airport Schiphol (EHAM)
Time Latitude Longitude Altitude Speed Heading
2026-05-05 19:41 53.35596 -2.28144 233 ft 0 kts 81°
2026-05-05 19:50 53.35585 -2.28130 235 ft 5 kts 163°
2026-05-05 19:50 53.35515 -2.28135 228 ft 14 kts 181°
2026-05-05 19:50 53.35431 -2.28157 233 ft 10 kts 191°
2026-05-05 19:50 53.35365 -2.28175 230 ft 10 kts 194°
2026-05-05 19:51 53.35288 -2.28228 228 ft 14 kts 210°
2026-05-05 19:51 53.35207 -2.28350 227 ft 19 kts 231°
2026-05-05 19:51 53.35110 -2.28550 223 ft 22 kts 232°
2026-05-05 19:51 53.35017 -2.28738 223 ft 21 kts 225°
2026-05-05 19:52 53.34956 -2.28724 224 ft 0 kts 138°
2026-05-05 19:54 53.34938 -2.28701 224 ft 13 kts 142°
2026-05-05 19:54 53.34863 -2.28556 225 ft 13 kts 60°
2026-05-05 19:54 53.34867 -2.28547 225 ft 0 kts 53°
2026-05-05 19:56 53.35064 -2.28137 229 ft 87 kts 50°
2026-05-05 19:56 53.35574 -2.27058 454 ft 134 kts 52°
2026-05-05 19:56 53.36191 -2.25841 1320 ft 147 kts 50°
2026-05-05 19:57 53.36845 -2.24381 2112 ft 162 kts 63°
2026-05-05 19:57 53.37174 -2.23231 2650 ft 171 kts 60°
2026-05-05 19:57 53.38172 -2.21092 3838 ft 192 kts 44°
2026-05-05 19:57 53.39398 -2.19714 4511 ft 232 kts 33°
2026-05-05 19:58 53.40661 -2.17802 5187 ft 259 kts 54°
2026-05-05 19:58 53.41966 -2.15495 5855 ft 288 kts 44°
2026-05-05 19:58 53.43390 -2.12919 6561 ft 306 kts 51°
2026-05-05 19:58 53.44435 -2.10079 7402 ft 268 kts 61°
2026-05-05 19:59 53.45261 -2.07297 8189 ft 275 kts 60°
2026-05-05 19:59 53.46283 -2.04464 8901 ft 287 kts 52°
2026-05-05 19:59 53.47460 -2.01784 9514 ft 285 kts 50°
2026-05-05 19:59 53.48644 -1.99090 10113 ft 288 kts 51°
2026-05-05 20:00 53.49430 -1.97205 10436 ft 299 kts 52°
2026-05-05 20:00 53.50624 -1.94211 10862 ft 314 kts 57°
2026-05-05 20:00 53.51449 -1.90766 11467 ft 322 kts 71°
2026-05-05 20:00 53.51805 -1.87006 12101 ft 331 kts 85°
2026-05-05 20:01 53.51622 -1.83144 12754 ft 332 kts 101°
2026-05-05 20:01 53.50999 -1.79426 13534 ft 329 kts 106°
2026-05-05 20:01 53.50352 -1.75730 14269 ft 335 kts 106°
2026-05-05 20:01 53.49696 -1.72002 14894 ft 326 kts 106°
2026-05-05 20:02 53.49038 -1.68301 15359 ft 340 kts 107°
2026-05-05 20:02 53.48345 -1.64386 15778 ft 359 kts 107°
2026-05-05 20:02 53.47626 -1.60337 16389 ft 363 kts 107°
2026-05-05 20:02 53.46901 -1.56255 17047 ft 367 kts 107°
2026-05-05 20:03 53.46161 -1.52131 17718 ft 370 kts 108°
2026-05-05 20:03 53.45421 -1.48006 18391 ft 370 kts 108°
2026-05-05 20:03 53.44683 -1.43905 18983 ft 374 kts 108°
2026-05-05 20:03 53.43928 -1.39707 19578 ft 378 kts 108°
2026-05-05 20:04 53.43162 -1.35474 20198 ft 380 kts 108°
2026-05-05 20:04 53.42391 -1.31207 20745 ft 385 kts 108°
2026-05-05 20:04 53.41606 -1.26889 21259 ft 389 kts 108°
2026-05-05 20:04 53.40820 -1.22544 21783 ft 391 kts 108°
2026-05-05 20:05 53.40028 -1.18178 22313 ft 392 kts 109°
2026-05-05 20:05 53.39228 -1.13799 22856 ft 395 kts 109°
2026-05-05 20:05 53.38419 -1.09383 23406 ft 398 kts 109°
2026-05-05 20:05 53.37604 -1.04936 23911 ft 401 kts 109°
2026-05-05 20:06 53.36781 -1.00453 24377 ft 404 kts 109°
2026-05-05 20:06 53.35951 -0.95953 24858 ft 405 kts 109°
2026-05-05 20:06 53.35118 -0.91433 25272 ft 409 kts 109°
2026-05-05 20:06 53.34271 -0.86868 25638 ft 412 kts 109°
2026-05-05 20:07 53.33420 -0.82276 26016 ft 415 kts 109°
2026-05-05 20:07 53.32559 -0.77651 26409 ft 417 kts 109°
2026-05-05 20:07 53.31696 -0.73017 26787 ft 419 kts 109°
2026-05-05 20:07 53.30824 -0.68358 27172 ft 420 kts 109°
2026-05-05 20:08 53.29951 -0.63698 27567 ft 420 kts 109°
2026-05-05 20:08 53.29076 -0.59044 27966 ft 420 kts 109°
2026-05-05 20:08 53.28201 -0.54387 28372 ft 420 kts 109°
2026-05-05 20:08 53.27323 -0.49741 28784 ft 419 kts 109°
2026-05-05 20:09 53.26447 -0.45110 29201 ft 418 kts 109°
2026-05-05 20:09 53.25569 -0.40488 29620 ft 417 kts 109°
2026-05-05 20:09 53.24694 -0.35879 30043 ft 415 kts 110°
2026-05-05 20:09 53.23820 -0.31296 30409 ft 414 kts 110°
2026-05-05 20:10 53.22947 -0.26731 30777 ft 412 kts 110°
2026-05-05 20:10 53.22077 -0.22189 31149 ft 410 kts 110°
2026-05-05 20:10 53.21205 -0.17650 31414 ft 411 kts 110°
2026-05-05 20:10 53.20342 -0.13167 31664 ft 412 kts 110°
2026-05-05 20:11 53.19462 -0.08611 31922 ft 413 kts 110°
2026-05-05 20:11 53.18582 -0.04052 32182 ft 413 kts 110°
2026-05-05 20:11 53.17697 0.00508 32444 ft 414 kts 110°
2026-05-05 20:11 53.16811 0.05068 32706 ft 414 kts 111°
2026-05-05 20:12 53.15922 0.09629 32970 ft 414 kts 111°
2026-05-05 20:12 53.14118 0.18854 33030 ft 424 kts 111°
2026-05-05 20:13 53.12273 0.28251 33024 ft 428 kts 111°
2026-05-05 20:13 53.10421 0.37633 33024 ft 426 kts 111°
2026-05-05 20:14 53.08570 0.46962 33014 ft 424 kts 111°
2026-05-05 20:14 53.06718 0.56253 33001 ft 423 kts 111°
2026-05-05 20:15 53.04860 0.65529 32992 ft 423 kts 111°
2026-05-05 20:15 53.02992 0.74814 32994 ft 424 kts 111°
2026-05-05 20:16 53.01108 0.84132 32991 ft 426 kts 111°
2026-05-05 20:16 52.99220 0.93430 32991 ft 425 kts 112°
2026-05-05 20:17 52.97531 1.02808 32984 ft 425 kts 103°
2026-05-05 20:17 52.96456 1.12421 32993 ft 423 kts 104°
2026-05-05 20:18 52.95335 1.21978 32990 ft 422 kts 104°
2026-05-05 20:18 52.94228 1.31526 32990 ft 422 kts 104°
2026-05-05 20:19 52.93100 1.41100 32992 ft 424 kts 104°
2026-05-05 20:19 52.91966 1.50698 32994 ft 425 kts 104°
2026-05-05 20:20 52.90825 1.60271 32979 ft 421 kts 104°
2026-05-05 20:20 52.89686 1.69748 32969 ft 419 kts 104°
2026-05-05 20:21 52.88539 1.79231 32974 ft 421 kts 104°
2026-05-05 20:21 52.87381 1.88742 32969 ft 422 kts 105°
2026-05-05 20:21 52.86793 1.93533 32661 ft 427 kts 105°
2026-05-05 20:22 52.86202 1.98350 32234 ft 427 kts 105°
2026-05-05 20:22 52.85611 2.03153 31718 ft 425 kts 105°
2026-05-05 20:22 52.85019 2.07939 31230 ft 424 kts 105°
2026-05-05 20:22 52.84426 2.12707 30763 ft 423 kts 105°
2026-05-05 20:23 52.83831 2.17477 30384 ft 424 kts 105°
2026-05-05 20:23 52.83230 2.22271 29961 ft 428 kts 105°
2026-05-05 20:23 52.82622 2.27117 29327 ft 433 kts 105°
2026-05-05 20:23 52.82009 2.31988 28699 ft 432 kts 105°
2026-05-05 20:24 52.81397 2.36843 28073 ft 431 kts 105°
2026-05-05 20:24 52.80781 2.41689 27461 ft 431 kts 105°
2026-05-05 20:24 52.80166 2.46525 26857 ft 429 kts 104°
2026-05-05 20:24 52.79551 2.51333 26273 ft 427 kts 104°
2026-05-05 20:25 52.78943 2.56094 25691 ft 420 kts 104°
2026-05-05 20:25 52.78340 2.60779 25123 ft 413 kts 104°
2026-05-05 20:25 52.77745 2.65384 24570 ft 408 kts 104°
2026-05-05 20:25 52.77153 2.69955 24018 ft 405 kts 104°
2026-05-05 20:26 52.76565 2.74479 23473 ft 402 kts 104°
2026-05-05 20:26 52.75981 2.78973 22822 ft 399 kts 104°
2026-05-05 20:26 52.75395 2.83444 22196 ft 397 kts 103°
2026-05-05 20:26 52.74814 2.87878 21596 ft 394 kts 104°
2026-05-05 20:27 52.74235 2.92273 21002 ft 391 kts 103°
2026-05-05 20:27 52.73660 2.96636 20424 ft 388 kts 103°
2026-05-05 20:27 52.72824 3.00804 19826 ft 381 kts 120°
2026-05-05 20:27 52.71508 3.04501 19266 ft 377 kts 122°
2026-05-05 20:28 52.70208 3.08234 18845 ft 373 kts 121°
2026-05-05 20:28 52.68921 3.11942 18513 ft 371 kts 121°
2026-05-05 20:28 52.67624 3.15618 18280 ft 371 kts 121°
2026-05-05 20:28 52.66327 3.19297 18016 ft 372 kts 121°
2026-05-05 20:29 52.65028 3.22988 17742 ft 372 kts 121°
2026-05-05 20:29 52.63730 3.26675 17474 ft 372 kts 121°
2026-05-05 20:29 52.62427 3.30363 17210 ft 371 kts 121°
2026-05-05 20:29 52.61130 3.34029 16951 ft 370 kts 121°
2026-05-05 20:30 52.59841 3.37671 16801 ft 367 kts 121°
2026-05-05 20:30 52.58696 3.41442 16430 ft 373 kts 110°
2026-05-05 20:30 52.58063 3.45547 16000 ft 370 kts 100°
2026-05-05 20:30 52.57646 3.49675 15926 ft 363 kts 100°
2026-05-05 20:31 52.57204 3.53820 15339 ft 366 kts 100°
2026-05-05 20:31 52.56764 3.57892 14606 ft 359 kts 100°
2026-05-05 20:31 52.56334 3.61917 14027 ft 353 kts 100°
2026-05-05 20:31 52.55910 3.65880 13557 ft 352 kts 100°
2026-05-05 20:32 52.55484 3.69840 13085 ft 352 kts 100°
2026-05-05 20:32 52.55056 3.73806 12621 ft 353 kts 100°
2026-05-05 20:32 52.54626 3.77761 12159 ft 350 kts 100°
2026-05-05 20:32 52.54203 3.81668 11692 ft 345 kts 100°
2026-05-05 20:33 52.53780 3.85528 11241 ft 342 kts 100°
2026-05-05 20:33 52.53363 3.89362 10791 ft 340 kts 99°
2026-05-05 20:33 52.52944 3.93167 10342 ft 337 kts 100°
2026-05-05 20:33 52.52288 3.96828 9873 ft 334 kts 114°
2026-05-05 20:34 52.51159 4.00121 9565 ft 330 kts 123°
2026-05-05 20:34 52.49848 4.03233 9261 ft 332 kts 123°
2026-05-05 20:34 52.48554 4.06361 8939 ft 329 kts 123°
2026-05-05 20:34 52.47293 4.09392 8628 ft 313 kts 123°
2026-05-05 20:35 52.46106 4.12233 8330 ft 293 kts 123°
2026-05-05 20:35 52.44976 4.14939 8054 ft 283 kts 122°
2026-05-05 20:35 52.43875 4.17580 7792 ft 279 kts 122°
2026-05-05 20:35 52.42778 4.20206 7522 ft 279 kts 121°
2026-05-05 20:36 52.41675 4.22839 7262 ft 281 kts 122°
2026-05-05 20:36 52.40540 4.25433 6990 ft 280 kts 129°
2026-05-05 20:36 52.39033 4.27466 6729 ft 283 kts 142°
2026-05-05 20:36 52.37419 4.29330 6477 ft 283 kts 143°
2026-05-05 20:37 52.35850 4.31180 6220 ft 280 kts 142°
2026-05-05 20:37 52.34788 4.32438 6041 ft 278 kts 142°
2026-05-05 20:37 52.32715 4.34866 5703 ft 276 kts 141°
2026-05-05 20:37 52.31114 4.36692 5441 ft 277 kts 142°
2026-05-05 20:38 52.29552 4.38458 5195 ft 277 kts 142°
2026-05-05 20:38 52.27973 4.40240 4948 ft 275 kts 141°
2026-05-05 20:38 52.26387 4.41995 4698 ft 275 kts 142°
2026-05-05 20:38 52.24827 4.43763 4438 ft 270 kts 135°
2026-05-05 20:39 52.23818 4.46224 4190 ft 259 kts 108°
2026-05-05 20:39 52.23217 4.48968 4010 ft 256 kts 104°
2026-05-05 20:39 52.22711 4.51746 3797 ft 254 kts 100°
2026-05-05 20:39 52.22292 4.54448 3564 ft 238 kts 100°
2026-05-05 20:40 52.21910 4.56977 3347 ft 222 kts 99°
2026-05-05 20:40 52.21546 4.59341 3150 ft 210 kts 99°
2026-05-05 20:40 52.21189 4.61627 2968 ft 207 kts 99°
2026-05-05 20:40 52.20832 4.63904 2798 ft 207 kts 99°
2026-05-05 20:41 52.20487 4.66160 2634 ft 200 kts 99°
2026-05-05 20:41 52.20153 4.68333 2436 ft 196 kts 99°
2026-05-05 20:41 52.19824 4.70479 2246 ft 194 kts 99°
2026-05-05 20:41 52.19617 4.72613 2026 ft 188 kts 83°
2026-05-05 20:42 52.19958 4.74579 2025 ft 179 kts 59°
2026-05-05 20:42 52.20786 4.76068 2028 ft 179 kts 35°
2026-05-05 20:42 52.21938 4.76869 2035 ft 182 kts 17°
2026-05-05 20:42 52.23209 4.77146 1807 ft 181 kts
2026-05-05 20:43 52.24390 4.77207 1248 ft 161 kts
2026-05-05 20:43 52.25351 4.77295 959 ft 122 kts
2026-05-05 20:43 52.26167 4.77386 700 ft 117 kts
2026-05-05 20:43 52.26977 4.77507 604 ft 114 kts
2026-05-05 20:44 52.27754 4.77572 494 ft 110 kts
2026-05-05 20:44 52.28506 4.77522 381 ft 107 kts 358°
2026-05-05 20:44 52.29271 4.77531 278 ft 111 kts 14°
2026-05-05 20:44 52.29932 4.78206 91 ft 115 kts 40°
2026-05-05 20:45 52.30763 4.79383 -8 ft 51 kts 40°
2026-05-05 20:45 52.30899 4.79581 -9 ft 8 kts 45°
2026-05-05 20:45 52.30889 4.79640 -9 ft 5 kts 132°
2026-05-05 20:46 52.30881 4.79654 -8 ft 0 kts 134°
2026-05-05 20:46 52.30867 4.79679 -7 ft 10 kts 132°
2026-05-05 20:46 52.30827 4.79806 -6 ft 13 kts 78°
2026-05-05 20:46 52.30887 4.79902 -6 ft 12 kts 42°
2026-05-05 20:47 52.30954 4.80000 -6 ft 14 kts 46°
2026-05-05 20:47 52.31035 4.80117 -6 ft 19 kts 40°
2026-05-05 20:47 52.31151 4.80285 -5 ft 24 kts 41°
2026-05-05 20:47 52.31255 4.80440 -5 ft 10 kts 67°
2026-05-05 20:48 52.31246 4.80531 -5 ft 8 kts 105°
2026-05-05 20:48 52.31222 4.80565 -5 ft 2 kts 215°
2026-05-05 20:48 52.31205 4.80536 -5 ft 4 kts 217°
2026-05-05 20:48 52.31187 4.80544 -5 ft 3 kts 143°
2026-05-05 20:49 52.31185 4.80552 -5 ft 0 kts 95°
2026-05-05 20:49 52.31186 4.80555 -5 ft 1 kts 59°
2026-05-05 20:49 52.31189 4.80553 -5 ft 0 kts 340°
2026-05-05 20:49 52.31189 4.80552 -5 ft 0 kts 315°